THY6956 LTFM-LTBA

Flight info

Callsign THY6956
Flight time 0h 16m
Altitude 9000
Route IST1N/35L IST
Aircraft A320/M-SDE3FGHIRWY/LB1

Departure

Time 2026-05-05 17:37
Airport İstanbul Airport (LTFM)

Arrival

Time 2026-05-05 17:53
Airport İstanbul Atatürk Airport (LTBA)
Time Latitude Longitude Altitude Speed Heading
2026-05-05 17:12 41.26061 28.73621 177 ft 0 kts 109°
2026-05-05 17:24 41.26064 28.73609 176 ft 4 kts 111°
2026-05-05 17:24 41.26076 28.73577 176 ft 4 kts 122°
2026-05-05 17:24 41.26082 28.73565 176 ft 2 kts 109°
2026-05-05 17:25 41.26085 28.73542 176 ft 2 kts 97°
2026-05-05 17:25 41.26085 28.73528 176 ft 2 kts 73°
2026-05-05 17:25 41.26078 28.73498 176 ft 3 kts 73°
2026-05-05 17:25 41.26077 28.73492 176 ft 0 kts 66°
2026-05-05 17:26 41.26074 28.73481 176 ft 2 kts 34°
2026-05-05 17:26 41.26069 28.73477 176 ft 0 kts 18°
2026-05-05 17:30 41.26071 28.73478 176 ft 2 kts 18°
2026-05-05 17:30 41.26091 28.73487 176 ft 5 kts 18°
2026-05-05 17:30 41.26133 28.73505 176 ft 7 kts 18°
2026-05-05 17:31 41.26188 28.73506 176 ft 10 kts 337°
2026-05-05 17:31 41.26210 28.73419 176 ft 12 kts 269°
2026-05-05 17:31 41.26209 28.73294 176 ft 15 kts 270°
2026-05-05 17:31 41.26208 28.73143 176 ft 18 kts 267°
2026-05-05 17:32 41.26206 28.72965 176 ft 12 kts 268°
2026-05-05 17:32 41.26206 28.72960 176 ft 0 kts 268°
2026-05-05 17:34 41.26205 28.72920 176 ft 14 kts 269°
2026-05-05 17:34 41.26203 28.72779 175 ft 13 kts 269°
2026-05-05 17:34 41.26202 28.72643 174 ft 16 kts 269°
2026-05-05 17:35 41.26254 28.72525 175 ft 18 kts 356°
2026-05-05 17:35 41.26289 28.72523 175 ft 0 kts 358°
2026-05-05 17:36 41.26315 28.72522 176 ft 24 kts 359°
2026-05-05 17:36 41.26824 28.72512 178 ft 119 kts 359°
2026-05-05 17:36 41.27902 28.72492 206 ft 185 kts 360°
2026-05-05 17:36 41.29334 28.72457 449 ft 225 kts 359°
2026-05-05 17:37 41.30964 28.72428 1068 ft 230 kts 360°
2026-05-05 17:37 41.31994 28.72448 1755 ft 218 kts
2026-05-05 17:37 41.33986 28.72534 2906 ft 216 kts
2026-05-05 17:37 41.35519 28.72550 3711 ft 225 kts 359°
2026-05-05 17:38 41.37086 28.72394 4514 ft 226 kts 346°
2026-05-05 17:38 41.38448 28.71322 5329 ft 239 kts 317°
2026-05-05 17:38 41.39276 28.69306 6083 ft 261 kts 288°
2026-05-05 17:38 41.39266 28.66820 6967 ft 279 kts 260°
2026-05-05 17:39 41.38497 28.64387 7869 ft 289 kts 248°
2026-05-05 17:39 41.37599 28.61967 8650 ft 294 kts 250°
2026-05-05 17:39 41.36763 28.59479 8923 ft 295 kts 251°
2026-05-05 17:39 41.35934 28.56981 9002 ft 295 kts 251°
2026-05-05 17:40 41.35104 28.54487 9007 ft 294 kts 251°
2026-05-05 17:40 41.34277 28.51997 9011 ft 294 kts 251°
2026-05-05 17:40 41.33448 28.49505 9011 ft 295 kts 250°
2026-05-05 17:40 41.32315 28.47213 9013 ft 303 kts 227°
2026-05-05 17:41 41.31188 28.46107 9016 ft 307 kts 210°
2026-05-05 17:41 41.29180 28.45097 9012 ft 310 kts 199°
2026-05-05 17:41 41.27114 28.44274 9012 ft 310 kts 198°
2026-05-05 17:41 41.25045 28.43472 8908 ft 309 kts 198°
2026-05-05 17:42 41.22988 28.42678 8558 ft 307 kts 198°
2026-05-05 17:42 41.20943 28.41890 8218 ft 305 kts 198°
2026-05-05 17:42 41.18908 28.41107 7893 ft 303 kts 198°
2026-05-05 17:42 41.16884 28.40329 7570 ft 302 kts 198°
2026-05-05 17:43 41.14868 28.39555 7230 ft 301 kts 198°
2026-05-05 17:43 41.12861 28.38785 6916 ft 299 kts 198°
2026-05-05 17:43 41.10865 28.38021 6599 ft 298 kts 198°
2026-05-05 17:43 41.08876 28.37277 6286 ft 297 kts 194°
2026-05-05 17:44 41.06827 28.37154 5951 ft 296 kts 170°
2026-05-05 17:44 41.04939 28.38052 5801 ft 283 kts 146°
2026-05-05 17:44 41.03372 28.39544 5671 ft 273 kts 140°
2026-05-05 17:44 41.01876 28.41036 5494 ft 266 kts 140°
2026-05-05 17:45 41.00411 28.42502 5270 ft 261 kts 140°
2026-05-05 17:45 40.98973 28.43941 5042 ft 257 kts 139°
2026-05-05 17:45 40.97584 28.45342 4815 ft 252 kts 139°
2026-05-05 17:45 40.96213 28.46764 4587 ft 248 kts 137°
2026-05-05 17:46 40.94897 28.48209 4354 ft 244 kts 135°
2026-05-05 17:46 40.93622 28.49652 4127 ft 240 kts 138°
2026-05-05 17:46 40.92329 28.51020 3902 ft 236 kts 139°
2026-05-05 17:46 40.91054 28.52349 3694 ft 231 kts 139°
2026-05-05 17:47 40.89802 28.53645 3487 ft 226 kts 139°
2026-05-05 17:47 40.88580 28.54906 3288 ft 221 kts 140°
2026-05-05 17:47 40.87433 28.56196 3182 ft 210 kts 125°
2026-05-05 17:47 40.86929 28.57907 3130 ft 197 kts 86°
2026-05-05 17:48 40.87192 28.59634 3064 ft 187 kts 68°
2026-05-05 17:48 40.87609 28.61161 3108 ft 167 kts 65°
2026-05-05 17:48 40.88046 28.62522 3013 ft 155 kts 61°
2026-05-05 17:48 40.88536 28.63756 2850 ft 147 kts 57°
2026-05-05 17:49 40.89047 28.64894 2680 ft 142 kts 54°
2026-05-05 17:49 40.89559 28.66002 2441 ft 140 kts 54°
2026-05-05 17:49 40.90077 28.67074 2210 ft 140 kts 54°
2026-05-05 17:49 40.90603 28.68158 2020 ft 140 kts 54°
2026-05-05 17:50 40.91121 28.69249 1799 ft 140 kts 57°
2026-05-05 17:50 40.91619 28.70355 1588 ft 139 kts 57°
2026-05-05 17:50 40.92119 28.71451 1477 ft 139 kts 56°
2026-05-05 17:50 40.92642 28.72530 1373 ft 140 kts 55°
2026-05-05 17:51 40.93163 28.73616 1295 ft 140 kts 56°
2026-05-05 17:51 40.93687 28.74701 1225 ft 140 kts 56°
2026-05-05 17:51 40.94195 28.75797 1112 ft 140 kts 59°
2026-05-05 17:51 40.94673 28.76917 955 ft 140 kts 58°
2026-05-05 17:52 40.95179 28.78015 698 ft 140 kts 56°
2026-05-05 17:52 40.95718 28.79097 452 ft 141 kts 57°
2026-05-05 17:52 40.96229 28.80210 333 ft 143 kts 58°
2026-05-05 17:52 40.96734 28.81321 147 ft 135 kts 60°
2026-05-05 17:53 40.97155 28.82263 112 ft 84 kts 59°
2026-05-05 17:53 40.97301 28.82555 112 ft 26 kts 43°
2026-05-05 17:53 40.97456 28.82698 112 ft 22 kts 28°
2026-05-05 17:53 40.97596 28.82812 111 ft 25 kts 48°
2026-05-05 17:54 40.97691 28.83012 111 ft 21 kts 55°
2026-05-05 17:54 40.97720 28.83026 111 ft 3 kts 290°
2026-05-05 17:54 40.97720 28.82944 111 ft 11 kts 257°
2026-05-05 17:54 40.97702 28.82830 111 ft 15 kts 258°
2026-05-05 17:55 40.97677 28.82647 111 ft 22 kts 260°
2026-05-05 17:55 40.97647 28.82436 111 ft 24 kts 258°
2026-05-05 17:55 40.97618 28.82229 111 ft 21 kts 259°
2026-05-05 17:55 40.97590 28.82032 112 ft 23 kts 259°
2026-05-05 17:56 40.97563 28.81860 112 ft 11 kts 258°
2026-05-05 17:56 40.97552 28.81785 112 ft 7 kts 258°
2026-05-05 17:56 40.97564 28.81724 110 ft 8 kts 312°
2026-05-05 17:56 40.97592 28.81709 112 ft 0 kts 352°
2026-05-05 17:57 40.97599 28.81711 112 ft 0 kts 350°